• In Hungary
  • List of Countries
  • For 7 days
  • Water Temperature
  • Satellite Maps
  • Weather Map
  • News
  • Weather Widgets
  • user-avatar
    Login

    Hourly Weather Gorovschina

    Today, 13 December, Wednesday

    Time Temperature Precipitation Wind Pressure Humidity
    00:00 -1°C° 0 mm 6 mps 734 mmHg 85%
    01:00 -1°C° 0 mm 6 mps 735 mmHg 83%
    02:00 -1°C° 0 mm 5 mps 735 mmHg 84%
    03:00 -1°C° 0 mm 5 mps 735 mmHg 83%
    04:00 -1°C° 0 mm 5 mps 735 mmHg 83%
    05:00 -2°C° 0 mm 5 mps 736 mmHg 83%
    06:00 -2°C° 0 mm 5 mps 736 mmHg 84%
    07:00 -2°C° 0 mm 5 mps 737 mmHg 85%
    08:00 -2°C° 0 mm 5 mps 737 mmHg 85%
    09:00 -2°C° 0 mm 5 mps 738 mmHg 85%
    10:00 -2°C° 0 mm 5 mps 738 mmHg 85%
    11:00 -2°C° 0 mm 4 mps 739 mmHg 85%
    12:00 -2°C° 0 mm 4 mps 739 mmHg 86%
    13:00 -2°C° 0 mm 4 mps 739 mmHg 86%
    14:00 -1°C° 0 mm 3 mps 739 mmHg 87%
    15:00 -2°C° 0 mm 3 mps 739 mmHg 89%
    16:00 -2°C° 0 mm 3 mps 740 mmHg 91%
    17:00 -4°C° 0 mm 3 mps 740 mmHg 93%
    18:00 -3°C° 0 mm 2 mps 740 mmHg 93%
    19:00 -4°C° 0 mm 2 mps 739 mmHg 93%
    20:00 -4°C° 0 mm 2 mps 739 mmHg 93%
    21:00 -4°C° 0 mm 2 mps 739 mmHg 93%
    22:00 -4°C° 0 mm 2 mps 739 mmHg 92%
    23:00 -4°C° 0 mm 2 mps 738 mmHg 92%

    Tomorrow, 14 December, Thursday

    Time Temperature Precipitation Wind Pressure Humidity
    00:00 -5°C° 0 mm 3 mps 738 mmHg 92%
    01:00 -6°C° 0 mm 3 mps 738 mmHg 92%
    02:00 -6°C° 0 mm 3 mps 737 mmHg 92%
    03:00 -6°C° 0 mm 3 mps 737 mmHg 92%
    04:00 -7°C° 0 mm 4 mps 736 mmHg 92%
    05:00 -7°C° 0 mm 4 mps 736 mmHg 92%
    06:00 -7°C° 0 mm 4 mps 735 mmHg 92%
    07:00 -7°C° 0 mm 5 mps 734 mmHg 92%
    08:00 -7°C° 0 mm 5 mps 734 mmHg 92%
    09:00 -6°C° 0 mm 5 mps 733 mmHg 91%
    10:00 -5°C° 0 mm 6 mps 732 mmHg 90%
    11:00 -5°C° 0 mm 6 mps 732 mmHg 88%
    12:00 -4°C° 0 mm 6 mps 731 mmHg 87%
    13:00 -3°C° 0 mm 7 mps 730 mmHg 87%
    14:00 -3°C° 0 mm 7 mps 729 mmHg 86%
    15:00 -3°C° 0.1 mm 7 mps 729 mmHg 86%
    16:00 -2°C° 0.1 mm 7 mps 728 mmHg 86%
    17:00 -2°C° 0.1 mm 7 mps 728 mmHg 86%
    18:00 -2°C° 0.1 mm 7 mps 727 mmHg 87%
    19:00 -2°C° 0.1 mm 7 mps 727 mmHg 87%
    20:00 -1°C° 0.1 mm 7 mps 726 mmHg 88%
    21:00 -2°C° 0.3 mm 7 mps 726 mmHg 85%
    22:00 -2°C° 0.3 mm 6 mps 726 mmHg 83%
    23:00 -2°C° 0.3 mm 6 mps 726 mmHg 80%

    Day after tomorrow, 15 December, Friday

    Time Temperature Precipitation Wind Pressure Humidity
    00:00 -2°C° 0.1 mm 6 mps 726 mmHg 82%
    01:00 -2°C° 0.1 mm 6 mps 727 mmHg 83%
    02:00 -3°C° 0.1 mm 7 mps 727 mmHg 85%
    03:00 -2°C° 0.1 mm 6 mps 728 mmHg 85%
    04:00 -2°C° 0.1 mm 6 mps 728 mmHg 85%
    05:00 -2°C° 0.1 mm 6 mps 729 mmHg 86%
    06:00 -3°C° 0 mm 6 mps 729 mmHg 87%
    07:00 -4°C° 0 mm 5 mps 730 mmHg 87%
    08:00 -4°C° 0 mm 4 mps 730 mmHg 88%
    09:00 -3°C° 0 mm 4 mps 730 mmHg 85%
    10:00 -4°C° 0 mm 5 mps 731 mmHg 83%
    11:00 -4°C° 0 mm 5 mps 731 mmHg 80%
    12:00 -4°C° 0.1 mm 5 mps 730 mmHg 81%
    13:00 -4°C° 0.1 mm 5 mps 730 mmHg 83%
    14:00 -3°C° 0.1 mm 6 mps 730 mmHg 84%
    15:00 -2°C° 0.3 mm 5 mps 730 mmHg 86%
    16:00 -2°C° 0.3 mm 5 mps 730 mmHg 88%
    17:00 -2°C° 0.3 mm 5 mps 729 mmHg 89%
    18:00 -2°C° 0.2 mm 5 mps 729 mmHg 90%
    19:00 -2°C° 0.2 mm 4 mps 729 mmHg 91%
    20:00 -2°C° 0.2 mm 4 mps 729 mmHg 92%
    21:00 -2°C° 0.6 mm 4 mps 729 mmHg 93%
    22:00 -1°C° 0.6 mm 4 mps 729 mmHg 93%
    23:00 -1°C° 0.6 mm 4 mps 729 mmHg 94%

    16 December, Saturday

    Time Temperature Precipitation Wind Pressure Humidity
    00:00 -1°C° 0 mm 4 mps 729 mmHg 94%
    01:00 -1°C° 0 mm 3 mps 729 mmHg 94%
    02:00 -1°C° 0 mm 3 mps 730 mmHg 94%
    03:00 -1°C° 0 mm 3 mps 730 mmHg 95%
    04:00 -2°C° 0 mm 2 mps 730 mmHg 96%
    05:00 -2°C° 0 mm 2 mps 730 mmHg 96%
    06:00 0°C° 0 mm 1 mps 730 mmHg 96%
    07:00 -1°C° 0 mm 1 mps 730 mmHg 96%
    08:00 -1°C° 0 mm 1 mps 730 mmHg 96%
    09:00 -1°C° 0 mm 1 mps 731 mmHg 96%
    10:00 0°C° 0 mm 1 mps 731 mmHg 95%
    11:00 0°C° 0 mm 1 mps 731 mmHg 95%
    12:00 -2°C° 0 mm 2 mps 731 mmHg 94%
    13:00 -2°C° 0 mm 2 mps 731 mmHg 94%
    14:00 -2°C° 0 mm 2 mps 731 mmHg 94%
    15:00 -2°C° 0 mm 2 mps 731 mmHg 94%
    16:00 -3°C° 0 mm 2 mps 731 mmHg 95%
    17:00 -1°C° 0 mm 1 mps 731 mmHg 96%
    18:00 -1°C° 0 mm 1 mps 732 mmHg 96%
    19:00 -3°C° 0 mm 2 mps 732 mmHg 96%
    20:00 -3°C° 0 mm 2 mps 733 mmHg 96%
    21:00 -3°C° 0 mm 2 mps 733 mmHg 95%
    22:00 -3°C° 0 mm 2 mps 734 mmHg 95%
    23:00 -4°C° 0 mm 2 mps 734 mmHg 95%

    17 December, Sunday

    Time Temperature Precipitation Wind Pressure Humidity
    00:00 -4°C° 0 mm 2 mps 735 mmHg 95%
    01:00 -4°C° 0 mm 2 mps 735 mmHg 95%
    02:00 -4°C° 0 mm 2 mps 736 mmHg 95%
    03:00 -4°C° 0 mm 2 mps 736 mmHg 95%
    04:00 -4°C° 0 mm 2 mps 736 mmHg 95%
    05:00 -4°C° 0 mm 2 mps 737 mmHg 96%
    06:00 -3°C° 0 mm 2 mps 737 mmHg 95%
    07:00 -3°C° 0 mm 2 mps 738 mmHg 94%
    08:00 0°C° 0 mm 1 mps 738 mmHg 94%
    09:00 0°C° 0 mm 1 mps 739 mmHg 92%
    10:00 -2°C° 0 mm 2 mps 739 mmHg 91%
    11:00 -2°C° 0 mm 2 mps 740 mmHg 90%
    12:00 +1°C° 0 mm 1 mps 740 mmHg 90%
    13:00 +1°C° 0 mm 1 mps 740 mmHg 90%
    14:00 +1°C° 0 mm 1 mps 741 mmHg 90%
    15:00 0°C° 0 mm 1 mps 741 mmHg 91%
    16:00 -1°C° 0 mm 1 mps 741 mmHg 91%
    17:00 -1°C° 0 mm 1 mps 741 mmHg 92%
    18:00 -1°C° 0 mm 1 mps 742 mmHg 92%
    19:00 -2°C° 0 mm 1 mps 742 mmHg 92%
    20:00 -2°C° 0 mm 1 mps 742 mmHg 92%
    21:00 -2°C° 0 mm 1 mps 743 mmHg 93%
    22:00 -2°C° 0 mm 1 mps 743 mmHg 93%
    23:00 -2°C° 0 mm 1 mps 743 mmHg 93%

    18 December, Monday

    Time Temperature Precipitation Wind Pressure Humidity
    00:00 -4°C° 0 mm 2 mps 743 mmHg 94%
    01:00 -4°C° 0 mm 2 mps 743 mmHg 95%
    02:00 -4°C° 0 mm 2 mps 743 mmHg 95%
    03:00 -3°C° 0 mm 2 mps 743 mmHg 96%
    04:00 -3°C° 0 mm 2 mps 743 mmHg 96%
    05:00 -3°C° 0 mm 2 mps 743 mmHg 96%
    06:00 -3°C° 0 mm 2 mps 744 mmHg 96%
    07:00 -4°C° 0 mm 2 mps 744 mmHg 96%
    08:00 -4°C° 0 mm 2 mps 744 mmHg 96%
    09:00 -5°C° 0 mm 3 mps 744 mmHg 94%
    10:00 -5°C° 0 mm 3 mps 744 mmHg 92%
    11:00 -5°C° 0 mm 3 mps 744 mmHg 91%
    12:00 -5°C° 0 mm 3 mps 744 mmHg 91%
    13:00 -5°C° 0 mm 3 mps 744 mmHg 90%
    14:00 -5°C° 0 mm 3 mps 744 mmHg 90%
    15:00 -5°C° 0 mm 3 mps 744 mmHg 91%
    16:00 -5°C° 0 mm 3 mps 744 mmHg 91%
    17:00 -5°C° 0 mm 3 mps 744 mmHg 92%
    18:00 -5°C° 0 mm 3 mps 744 mmHg 92%
    19:00 -6°C° 0 mm 3 mps 744 mmHg 93%
    20:00 -6°C° 0 mm 3 mps 744 mmHg 93%
    21:00 -6°C° 0 mm 3 mps 745 mmHg 93%
    22:00 -6°C° 0 mm 3 mps 745 mmHg 93%
    23:00 -6°C° 0 mm 3 mps 745 mmHg 93%
    Show more